Regional Weather Roundup
Issued by NWS Upton, NY

Current Version | Previous Version | Text Only | Print | Product List | Glossary Off
Versions: 1 2 3 4 5 6 7 8 9 10 11 12 13 14 15 16 17 18 19 20 21 22 23 24 25 26 27 28 29 30 31 32 33 34 35 36 37 38 39 40 41 42 43 44 45 46 47 48 49 50
000 ASUS41 KOKX 250305 RWROKX Regional Weather Roundup National Weather Service New York NY 1100 PM EDT TUE APR 24 2018 Note: "FAIR" indicates few or no clouds below 12,000 feet with no significant weather and/or obstructions to visibility. NYZ071-072-176-178-NJZ106-104-250400- New York City Metro Area CITY SKY/WX TMP DP RH WIND PRES REMARKS Central Park LGT RAIN 54 47 77 NE3 30.21F Bronx Bot Gard N/A 54 45 71 NE3 30.20S Bronx Lehman C N/A 54 45 71 E6 N/A LaGuardia Arpt LGT RAIN 57 47 69 E10 30.18F Queens College N/A 55 46 71 E14 N/A Kennedy Intl CLOUDY 54 48 80 E16G23 30.19F Breezy Point N/A 50 N/A N/A E12 N/A Brooklyn Coll N/A 54 48 82 E9 N/A Staten Island N/A 52 48 87 E13G24 N/A Newark/Liberty LGT RAIN 55 50 83 E9G17 30.17F Teterboro LGT RAIN 54 48 80 NE5 30.18F $$ NYZ177-179-078>081-250400- Long Island New York CITY SKY/WX TMP DP RH WIND PRES REMARKS Jones Beach N/A 50 N/A N/A E12G17 N/A Wantagh N/A 54 48 82 E13 N/A Hempstead N/A 55 48 76 SE12 30.22F Matinecock Pt N/A 55 N/A N/A E12 N/A Farmingdale CLOUDY 54 47 77 E13 30.20F MacArthur/ISP CLOUDY 55 48 77 E13 30.20F Stony Brook N/A 55 45 67 SE7 N/A Shirley CLOUDY 54 48 80 VRB7 30.22F Mt Sinai Harb N/A N/A N/A N/A SE9 N/A Westhampton CLOUDY 52 44 74 E9 30.23F East Hampton FAIR 49 43 78 E10 30.23F Southold N/A 52 45 76 SE6 N/A Montauk N/A 52 42 69 SE8 30.26F $$ NYZ052-065-067-250400- Hudson Valley CITY SKY/WX TMP DP RH WIND PRES REMARKS White Plains CLOUDY 52 40 63 E5 30.19F Larchmont Harb N/A 52 N/A N/A NE12 N/A Croton On Huds N/A 52 N/A N/A CALM N/A Somers N/A 50 37 62 E8 N/A Brewster N/A 52 36 54 SE2 N/A Newburgh MOCLDY 55 41 58 S6 30.21F Montgomery CLOUDY 55 39 54 SE8 30.18F Otisville N/A 54 41 62 SE7 N/A Warwick N/A 52 43 71 SE10 N/A Suffern N/A 48 45 87 E2 N/A Poughkeepsie CLOUDY 56 37 49 SE8 30.19F Albany CLOUDY 58 36 43 S12 30.18F $$ NJZ001-105-106-008-010-013-015-019>022-104-250400- New Jersey CITY SKY/WX TMP DP RH WIND PRES REMARKS Newark/Liberty LGT RAIN 55 50 83 E9G17 30.17F Teterboro LGT RAIN 54 48 80 NE5 30.18F Caldwell LGT RAIN 52 49 89 E10 30.19F Somerville LGT RAIN 52 48 86 E6 30.14F Linden RAIN 53 48 83 SE10 30.17F Perth Amboy N/A 50 N/A N/A E12G18 N/A Sussex CLOUDY 55 42 61 E9 30.18F Andover N/A 53 44 71 VRB3 30.16F Trenton RAIN 54 50 86 E8 30.13F Millville LGT RAIN 53 52 96 E10 30.08F FOG Atlantic City RAIN 54 53 97 E15 30.10F FOG Wrightstown NOT AVBL Toms River LGT RAIN 54 51 90 E8G17 30.14F Belmar LGT RAIN 52 50 93 E14 30.15F $$ PAZ047>061-062-071-250400- Eastern Pennsylvania CITY SKY/WX TMP DP RH WIND PRES REMARKS Philadelphia LGT RAIN 53 51 93 E9 30.11F FOG Allentown LGT RAIN 54 46 74 E8 30.13F Scranton LGT RAIN 51 47 86 E6 30.12F $$ CTZ002-004>006-009-010-012-RIZ004-006-007-MAZ004-011-015-250400- Southern New England In CT CITY SKY/WX TMP DP RH WIND PRES REMARKS Bradley Intl MOCLDY 54 36 50 S9 30.24F Hartford CLOUDY 54 39 57 S5 30.24F Danbury CLOUDY 52 38 58 SE5 30.23F Wtrbury/Oxford CLOUDY 51 38 60 SE8 30.23F Norwalk Harbor N/A 50 N/A N/A N8 N/A Bridgeport CLOUDY 52 43 71 NE8 30.22F Meriden CLOUDY 54 37 52 S3 30.24F New Haven CLOUDY 53 41 63 E7 30.23F Chester CLOUDY 52 41 66 SE6 30.24F Groton CLOUDY 50 43 77 E9 30.25F Willimantic MOCLDY 52 39 61 SE5 30.26F In RI CITY SKY/WX TMP DP RH WIND PRES REMARKS Providence CLOUDY 52 40 63 SE5 30.28F Block Island MOCLDY 50 40 68 SE10 30.26F Westerly CLOUDY 52 43 71 SE7 30.27F In MA CITY SKY/WX TMP DP RH WIND PRES REMARKS Boston FAIR 52 39 61 S12 30.27F Worcester FAIR 50 35 56 S8 30.25F Westfield MOCLDY 55 39 54 S8 30.23F Provincetown FAIR 49 33 54 S9 30.30F Nantucket MOCLDY 47 42 83 E9 30.29F $$ ANZ330-335-338-340-345-350-353-355-250400- Coastal Marine Observations STATION/POSITION TIME SKY/WX TEMP WIND PRES VSBY WAVE AIR SEA DIR/SP/G HT/PER (UTC) (F) (DEG/KT/KT) (MB) (MI) (FT/S) NY Harb Entrance 0250 50 47 100/ 16/ 19 1021.5 3/ 7 20 S Fire Island 0250 49 45 110/ 12/ 14 1021.9 4/ 6 23 SSW Montauk P 0250 47 45 110/ 12/ 14 1023.8 3/ 8 15 E Barnegat Li 0230 46 N/A 5/ 7 Hudson Canyon 0250 50 46 100/ 12/ 12 1021.2 5/ 7 Kings Point 0242 55 47 140/ 7/ 14 1023.1 Execution Rocks NOT AVBL Western LI Sound NOT AVBL Central LI Sound 0230 49 110/ 8/ 8 N/A 0 Robbins Reef 0248 54 90/ 15/ 20 1022.4 $$ >>>>>>>>>>>>>>>>>>>>>>>>>>>> KEY <<<<<<<<<<<<<<<<<<<<<<<<<<< > < > SKY/WX - Sky Condition/Present Weather < > TMP - Temperature in Fahrenheit < > DP - Dew Point in Fahrenheit < > RH - Relative Humidity in Percent < > WIND - Direction (from) and Speed in MPH < > PRES - Mean Sea Level Pressure (inches of Hg) < > WCI - Wind Chill Index < > VSB - Visibility in Miles < > HX - Heat Index < > TC - Temperature in Celsius < > VRB - Varibale Wind Direction < > < >>>>>>>>>>>>>>>>>>>>>>>>>>>> KEY <<<<<<<<<<<<<<<<<<<<<<<<<<<

USA.gov is the U.S. government's official web portal to all federal, state and local government web resources and services.